Terminal Aerodrome Forecast
Issued by NWS Topeka, KS

Home | Current Version | Previous Version | Graphics & Text | Print | Product List | Glossary On
Versions: 1 2 3 4 5 6 7 8 9 10 11 12 13 14 15 16 17 18 19 20 21 22 23 24 25 26
000
FTUS43 KTOP 250858 AAA
TAFTOP
TAF AMD
KTOP 250858Z 2509/2606 15020G35KT P6SM -SHRA BKN100
     FM251000 14012G20KT P6SM -SHRA BKN050
     FM251300 18011KT P6SM BKN025
     FM251700 19015G22KT P6SM SCT030
     FM260100 19011KT P6SM SCT250=

USA.gov is the U.S. government's official web portal to all federal, state and local government web resources and services.